This demonstration page uses our WeatherBlox Daily Observations layout. Learn more.

Left ArrowRight Arrow

Hourly Observations for April 13, 2016

Temp ( °F °C ) Dew Point ( °F °C ) Humidity (%) Winds ( mph kmh ) Pressure ( in mb ) Visibility ( mi km ) Precip ( " mm )
12:53 am 00:53 Clear 54 12.2 46 7.8 75 75 S 3 6 30.15 1021 10 16 0.00 0.00
1:53 am 01:53 Partly Cloudy 53 11.7 47 8.3 80 80 NNW 3 6 30.15 1021 10 16 0.00 0.00
2:53 am 02:53 Clear 52 11.1 46 7.8 80 80 W 5 7 30.13 1020 10 16 0.00 0.00
3:53 am 03:53 Partly Cloudy 50 10 44 6.7 80 80 Calm 30.13 1020 10 16 0.00 0.00
4:53 am 04:53 Clear 50 10 44 6.7 80 80 Calm 30.13 1020 10 16 0.00 0.00
5:53 am 05:53 Mostly Cloudy 50 10 44 6.7 80 80 Calm 30.13 1020 10 16 0.00 0.00
6:53 am 06:53 Partly Cloudy 48 8.9 43 6.1 83 83 Calm 30.12 1020 10 16 0.00 0.00
7:53 am 07:53 Sunny 51 10.6 46 7.8 83 83 Calm 30.13 1020 10 16 0.00 0.00
8:53 am 08:53 Sunny 55 12.8 47 8.3 74 74 Calm 30.12 1020 10 16 0.00 0.00
9:53 am 09:53 Sunny 58 14.4 47 8.3 67 67 VRB 3 6 30.11 1020 10 16 0.00 0.00
10:53 am 10:53 Sunny 62 16.7 45 7.2 54 54 S 5 7 30.11 1020 10 16 0.00 0.00
11:53 am 11:53 Sunny 65 18.3 42 5.6 43 43 VRB 6 9 30.10 1019 10 16 0.00 0.00
12:53 pm 12:53 Sunny 65 18.3 43 6.1 45 45 S 7 11 30.08 1019 10 16 0.00 0.00
1:53 pm 13:53 Sunny 66 18.9 42 5.6 42 42 SSE 9 15 30.04 1017 10 16 0.00 0.00
2:53 pm 14:53 Sunny 69 20.6 41 5 36 36 SSE 17 28 30.02 1017 10 16 0.00 0.00
3:53 pm 15:53 Sunny 70 21.1 43 6.1 38 38 S 15 24 29.98 1015 10 16 0.00 0.00
4:53 pm 16:53 Mostly Sunny 69 20.6 45 7.2 42 42 S 20 31 29.96 1015 10 16 0.00 0.00
5:53 pm 17:53 Mostly Sunny 67 19.4 47 8.3 49 49 S 17 28 29.93 1013 10 16 0.00 0.00
6:53 pm 18:53 Mostly Cloudy 67 19.4 45 7.2 45 45 S 21 33 29.88 1012 10 16 0.00 0.00
7:53 pm 19:53 Clear 65 18.3 44 6.7 47 47 S 15 24 29.85 1011 10 16 0.00 0.00
8:53 pm 20:53 Cloudy 66 18.9 24 -4.4 20 20 SSW 20 31 29.83 1010 10 16 0.00 0.00
9:53 pm 21:53 Cloudy 64 17.8 27 -2.8 25 25 SSW 21 33 29.87 1012 10 16 0.00 0.00
10:53 pm 22:53 Cloudy with Light Rain 54 12.2 41 5 62 62 W 12 19 29.96 1015 10 16 0.00 0.03
11:53 pm 23:53 Cloudy with Light Rain 49 9.4 45 7.2 86 86 SE 10 17 29.96 1015 9 14 0.09 2.29

Powered by AerisWeather